Salem, OR

5:55 AM PDT on September 18, 2019 (GMT -0700)
McNary

Weather History for KSLE - August, 2019

Change the Weather History Date:

Sunday, August 25, 2019

  Actual Average Record
Temperature  
Mean Temperature 68 °F 67 °F  
Max Temperature 80 °F 81 °F 97 °F (1967)
Min Temperature 55 °F 52 °F 41 °F (1980)
Degree Days  
Heating Degree Days 0 1  
Month to date heating degree days 3 22  
Since 1 June heating degree days 83 182  
Since 1 July heating degree days 10 52  
Cooling Degree Days 2 3  
Month to date cooling degree days 112 90  
Year to date cooling degree days 274 236  
Since 1 June cooling degree days 267 227  
Growing Degree Days 18 (Base 50)    
Moisture  
Dew Point 50 °F    
Average Humidity 54    
Maximum Humidity 86    
Minimum Humidity 28    
Precipitation  
Precipitation 0.00 in 0.02 in 0.51 in (1977)
Month to date precipitation 0.15 0.31  
Year to date precipitation 19.55 21.86  
Sea Level Pressure  
Sea Level Pressure 30.12 in    
Wind  
Wind Speed 8 mph ()    
Max Wind Speed 17 mph    
Max Gust Speed 23 mph    
Visibility 10.0 miles    
Events      
T = Trace of Precipitation, MM = Missing Value Source: Averaged Metar Reports

Daily Weather History Graph

Daily Weather History Graph

Search for Another Location

Airport or City:

Astronomy

Aug. 25, 2019 Rise Set
Actual Time 6:25 AM PDT 8:01 PM PDT
Civil Twilight 5:54 AM PDT 8:32 PM PDT
Nautical Twilight 5:17 AM PDT 9:09 PM PDT
Astronomical Twilight 4:36 AM PDT 9:49 PM PDT
Moon 12:56 AM PDT (8/25) 4:37 PM PDT (8/25)
Length of Visible Light 14h 37m
Length of Day
13h 35m
Waning Crescent, 28% of the Moon is Illuminated
Aug 25
Waning Crescent
Aug 30
New
Sep 5
First Quarter
Sep 13
Full
Sep 21
Last Quarter

Hourly Weather History & Observations

Time (PDT) Temp. Dew Point Humidity Pressure Visibility Wind Dir Wind Speed Gust Speed Precip Events Conditions
12:56 AM 64.0 °F 53.1 °F 67% 30.04 in 10.0 mi NW 8.1 mph - N/A   Overcast
1:56 AM 64.0 °F 53.1 °F 67% 30.06 in 10.0 mi NNW 11.5 mph - N/A   Overcast
2:56 AM 63.0 °F 53.1 °F 70% 30.07 in 10.0 mi NW 9.2 mph - N/A   Overcast
3:56 AM 59.0 °F 52.0 °F 78% 30.07 in 10.0 mi NNW 4.6 mph - N/A   Clear
4:56 AM 57.0 °F 51.1 °F 81% 30.09 in 10.0 mi NW 5.8 mph - N/A   Clear
5:56 AM 55.9 °F 51.1 °F 84% 30.11 in 10.0 mi NNW 5.8 mph - N/A   Clear
6:56 AM 55.9 °F 51.1 °F 84% 30.13 in 10.0 mi North 4.6 mph - N/A   Clear
7:56 AM 61.0 °F 52.0 °F 72% 30.15 in 10.0 mi North 5.8 mph - N/A   Clear
8:56 AM 64.0 °F 50.0 °F 60% 30.17 in 10.0 mi NNE 9.2 mph - N/A   Clear
9:56 AM 66.9 °F 50.0 °F 54% 30.17 in 10.0 mi NE 9.2 mph - N/A   Partly Cloudy
10:56 AM 69.1 °F 48.9 °F 49% 30.17 in 10.0 mi NNW 9.2 mph - N/A   Partly Cloudy
11:56 AM 72.0 °F 48.0 °F 43% 30.17 in 10.0 mi North 10.4 mph - N/A   Clear
12:56 PM 73.9 °F 46.0 °F 37% 30.16 in 10.0 mi North 9.2 mph - N/A   Clear
1:56 PM 77.0 °F 46.9 °F 34% 30.15 in 10.0 mi North 9.2 mph - N/A   Clear
2:56 PM 78.1 °F 46.0 °F 32% 30.14 in 10.0 mi NNW 11.5 mph - N/A   Clear
3:56 PM 78.1 °F 45.0 °F 31% 30.14 in 10.0 mi North 11.5 mph 20.7 mph N/A   Clear
4:56 PM 80.1 °F 45.0 °F 29% 30.12 in 10.0 mi North 12.7 mph 21.9 mph N/A   Clear
5:56 PM 79.0 °F 46.9 °F 32% 30.11 in 10.0 mi North 13.8 mph - N/A   Clear
6:56 PM 78.1 °F 48.0 °F 35% 30.11 in 10.0 mi NNE 13.8 mph - N/A   Clear
7:56 PM 73.9 °F 50.0 °F 43% 30.12 in 10.0 mi NNE 10.4 mph - N/A   Clear
8:56 PM 70.0 °F 50.0 °F 49% 30.12 in 10.0 mi NNE 10.4 mph - N/A   Clear
9:56 PM 69.1 °F 50.0 °F 51% 30.14 in 10.0 mi North 10.4 mph - N/A   Clear
10:56 PM 66.0 °F 51.1 °F 59% 30.14 in 10.0 mi North 9.2 mph - N/A   Clear
11:56 PM 63.0 °F 50.0 °F 63% 30.15 in 10.0 mi NNW 6.9 mph - N/A   Clear